• In Deutschland
  • Länderverzeichnis
  • Für 7 Tage
  • Wassertemperatur
  • Satellitenkarten
  • Wetterkarte
  • Widgets
  • user-avatar
    Anmelden

    Stündliche Wetter Hrasdan

    Heute, 23 September, Samstag

    Zeit Temperatur Niederschläge Wind Luftdruck Luftfeuchtigkeit
    00:00 +14°C° 0,3 mm 2 m/S 614 mmHg 78%
    01:00 +14°C° 0,1 mm 2 m/S 614 mmHg 78%
    02:00 +13°C° 0,1 mm 2 m/S 614 mmHg 78%
    03:00 +14°C° 0 mm 2 m/S 614 mmHg 75%
    04:00 +13°C° 0,1 mm 2 m/S 614 mmHg 75%
    05:00 +13°C° 0,1 mm 2 m/S 614 mmHg 76%
    06:00 +13°C° 0,1 mm 2 m/S 614 mmHg 76%
    07:00 +15°C° 0 mm 2 m/S 615 mmHg 67%
    08:00 +17°C° 0 mm 2 m/S 616 mmHg 58%
    09:00 +20°C° 0 mm 2 m/S 616 mmHg 48%
    10:00 +21°C° 0,1 mm 2 m/S 617 mmHg 44%
    11:00 +23°C° 0,1 mm 2 m/S 617 mmHg 40%
    12:00 +24°C° 0,1 mm 3 m/S 617 mmHg 36%
    13:00 +24°C° 0,2 mm 3 m/S 617 mmHg 36%
    14:00 +24°C° 0,2 mm 3 m/S 617 mmHg 36%
    15:00 +24°C° 0 mm 3 m/S 617 mmHg 35%
    16:00 +21°C° 0,6 mm 2 m/S 616 mmHg 45%
    17:00 +19°C° 0,6 mm 2 m/S 615 mmHg 54%
    18:00 +17°C° 0,6 mm 2 m/S 615 mmHg 64%
    19:00 +16°C° 0,7 mm 2 m/S 615 mmHg 69%
    20:00 +15°C° 0,7 mm 2 m/S 615 mmHg 74%
    21:00 +15°C° 0,7 mm 2 m/S 615 mmHg 79%
    22:00 +14°C° 0,1 mm 2 m/S 615 mmHg 81%
    23:00 +14°C° 0,1 mm 2 m/S 615 mmHg 83%

    Morgen, 24 September, Sonntag

    Zeit Temperatur Niederschläge Wind Luftdruck Luftfeuchtigkeit
    00:00 +13°C° 0,1 mm 2 m/S 615 mmHg 85%
    01:00 +13°C° 0,1 mm 2 m/S 615 mmHg 86%
    02:00 +13°C° 0,1 mm 2 m/S 615 mmHg 86%
    03:00 +12°C° 0,1 mm 2 m/S 615 mmHg 87%
    04:00 +12°C° 0 mm 2 m/S 615 mmHg 87%
    05:00 +12°C° 0 mm 2 m/S 615 mmHg 88%
    06:00 +10°C° 0 mm 2 m/S 615 mmHg 88%
    07:00 +13°C° 0 mm 2 m/S 616 mmHg 79%
    08:00 +15°C° 0 mm 1 m/S 617 mmHg 70%
    09:00 +18°C° 0 mm 1 m/S 618 mmHg 60%
    10:00 +18°C° 0,1 mm 2 m/S 618 mmHg 55%
    11:00 +19°C° 0,1 mm 2 m/S 618 mmHg 49%
    12:00 +21°C° 0,1 mm 2 m/S 619 mmHg 44%
    13:00 +21°C° 0,3 mm 2 m/S 618 mmHg 43%
    14:00 +21°C° 0,3 mm 2 m/S 618 mmHg 42%
    15:00 +21°C° 0,3 mm 2 m/S 618 mmHg 41%
    16:00 +19°C° 0,4 mm 2 m/S 617 mmHg 48%
    17:00 +17°C° 0,4 mm 2 m/S 617 mmHg 56%
    18:00 +16°C° 0,4 mm 2 m/S 616 mmHg 64%
    19:00 +15°C° 0,1 mm 2 m/S 616 mmHg 68%
    20:00 +14°C° 0,1 mm 2 m/S 616 mmHg 73%
    21:00 +13°C° 0,1 mm 2 m/S 616 mmHg 77%
    22:00 +13°C° 0 mm 2 m/S 616 mmHg 78%
    23:00 +12°C° 0 mm 2 m/S 616 mmHg 78%

    übermorgen, 25 September, Montag

    Zeit Temperatur Niederschläge Wind Luftdruck Luftfeuchtigkeit
    00:00 +12°C° 0 mm 2 m/S 616 mmHg 79%
    01:00 +10°C° 0 mm 2 m/S 616 mmHg 81%
    02:00 +10°C° 0 mm 2 m/S 616 mmHg 82%
    03:00 +10°C° 0 mm 2 m/S 616 mmHg 83%
    04:00 +9°C° 0 mm 2 m/S 616 mmHg 84%
    05:00 +10°C° 0 mm 1 m/S 616 mmHg 85%
    06:00 +10°C° 0 mm 1 m/S 615 mmHg 86%
    07:00 +12°C° 0 mm 1 m/S 616 mmHg 76%
    08:00 +14°C° 0 mm 1 m/S 617 mmHg 67%
    09:00 +16°C° 0 mm 1 m/S 618 mmHg 57%
    10:00 +17°C° 0,3 mm 2 m/S 618 mmHg 53%
    11:00 +19°C° 0,3 mm 2 m/S 618 mmHg 48%
    12:00 +20°C° 0,3 mm 2 m/S 618 mmHg 43%
    13:00 +20°C° 0,2 mm 2 m/S 618 mmHg 42%
    14:00 +20°C° 0,2 mm 2 m/S 618 mmHg 41%
    15:00 +20°C° 0,2 mm 2 m/S 618 mmHg 41%
    16:00 +18°C° 0,1 mm 2 m/S 617 mmHg 48%
    17:00 +16°C° 0,1 mm 2 m/S 616 mmHg 56%
    18:00 +14°C° 0,1 mm 1 m/S 616 mmHg 63%
    19:00 +14°C° 0,1 mm 2 m/S 616 mmHg 68%
    20:00 +13°C° 0,1 mm 2 m/S 616 mmHg 73%
    21:00 +12°C° 0,1 mm 2 m/S 616 mmHg 78%
    22:00 +12°C° 0 mm 2 m/S 616 mmHg 79%
    23:00 +10°C° 0 mm 2 m/S 616 mmHg 80%

    26 September, Dienstag

    Zeit Temperatur Niederschläge Wind Luftdruck Luftfeuchtigkeit
    00:00 +11°C° 0 mm 1 m/S 615 mmHg 81%
    01:00 +11°C° 0 mm 1 m/S 615 mmHg 81%
    02:00 +10°C° 0 mm 1 m/S 615 mmHg 82%
    03:00 +10°C° 0 mm 1 m/S 615 mmHg 82%
    04:00 +10°C° 0 mm 1 m/S 615 mmHg 83%
    05:00 +9°C° 0 mm 1 m/S 614 mmHg 83%
    06:00 +9°C° 0 mm 1 m/S 614 mmHg 84%
    07:00 +11°C° 0 mm 1 m/S 615 mmHg 74%
    08:00 +13°C° 0 mm 1 m/S 616 mmHg 64%
    09:00 +16°C° 0 mm 1 m/S 617 mmHg 54%
    10:00 +17°C° 0 mm 2 m/S 617 mmHg 48%
    11:00 +18°C° 0 mm 2 m/S 617 mmHg 42%
    12:00 +20°C° 0 mm 2 m/S 617 mmHg 37%
    13:00 +20°C° 0 mm 2 m/S 617 mmHg 37%
    14:00 +20°C° 0 mm 2 m/S 617 mmHg 36%
    15:00 +20°C° 0 mm 2 m/S 617 mmHg 36%
    16:00 +18°C° 0,1 mm 2 m/S 616 mmHg 44%
    17:00 +16°C° 0,1 mm 2 m/S 615 mmHg 52%
    18:00 +15°C° 0,1 mm 1 m/S 615 mmHg 60%
    19:00 +14°C° 0,3 mm 2 m/S 615 mmHg 66%
    20:00 +13°C° 0,3 mm 2 m/S 615 mmHg 72%
    21:00 +13°C° 0,3 mm 2 m/S 615 mmHg 78%
    22:00 +13°C° 0 mm 2 m/S 615 mmHg 79%
    23:00 +12°C° 0 mm 2 m/S 615 mmHg 81%

    27 September, Mittwoch

    Zeit Temperatur Niederschläge Wind Luftdruck Luftfeuchtigkeit
    00:00 +12°C° 0 mm 2 m/S 615 mmHg 82%
    01:00 +12°C° 0,1 mm 2 m/S 615 mmHg 83%
    02:00 +12°C° 0,1 mm 2 m/S 615 mmHg 84%
    03:00 +10°C° 0,1 mm 2 m/S 615 mmHg 85%
    04:00 +10°C° 0,1 mm 2 m/S 614 mmHg 86%
    05:00 +11°C° 0,1 mm 1 m/S 614 mmHg 87%
    06:00 +10°C° 0,1 mm 1 m/S 614 mmHg 87%
    07:00 +12°C° 0,1 mm 1 m/S 615 mmHg 77%
    08:00 +14°C° 0,1 mm 1 m/S 615 mmHg 66%
    09:00 +16°C° 0,1 mm 2 m/S 616 mmHg 55%
    10:00 +17°C° 0,1 mm 2 m/S 616 mmHg 52%
    11:00 +18°C° 0,1 mm 3 m/S 616 mmHg 48%
    12:00 +19°C° 0,1 mm 3 m/S 617 mmHg 45%
    13:00 +19°C° 0,1 mm 3 m/S 616 mmHg 45%
    14:00 +19°C° 0,1 mm 3 m/S 616 mmHg 46%
    15:00 +19°C° 0,1 mm 3 m/S 615 mmHg 47%
    16:00 +17°C° 0,4 mm 3 m/S 615 mmHg 55%
    17:00 +15°C° 0,4 mm 2 m/S 615 mmHg 63%
    18:00 +14°C° 0,4 mm 2 m/S 614 mmHg 72%
    19:00 +13°C° 0,1 mm 2 m/S 614 mmHg 75%
    20:00 +13°C° 0,1 mm 2 m/S 615 mmHg 79%
    21:00 +12°C° 0,1 mm 2 m/S 615 mmHg 83%
    22:00 +12°C° 0,1 mm 2 m/S 615 mmHg 84%
    23:00 +10°C° 0,1 mm 2 m/S 614 mmHg 86%

    28 September, Donnerstag

    Zeit Temperatur Niederschläge Wind Luftdruck Luftfeuchtigkeit
    00:00 +10°C° 0,1 mm 2 m/S 614 mmHg 87%
    01:00 +10°C° 0,1 mm 2 m/S 614 mmHg 88%
    02:00 +9°C° 0,1 mm 2 m/S 614 mmHg 89%
    03:00 +9°C° 0,1 mm 2 m/S 614 mmHg 90%
    04:00 +9°C° 0 mm 2 m/S 614 mmHg 90%
    05:00 +9°C° 0 mm 2 m/S 614 mmHg 89%
    06:00 +9°C° 0 mm 2 m/S 614 mmHg 89%
    07:00 +10°C° 0 mm 2 m/S 615 mmHg 83%
    08:00 +12°C° 0 mm 2 m/S 615 mmHg 76%
    09:00 +13°C° 0 mm 2 m/S 616 mmHg 69%
    10:00 +14°C° 0 mm 2 m/S 616 mmHg 65%
    11:00 +15°C° 0 mm 2 m/S 616 mmHg 62%
    12:00 +16°C° 0 mm 2 m/S 617 mmHg 58%
    13:00 +16°C° 0,2 mm 2 m/S 616 mmHg 59%
    14:00 +16°C° 0,2 mm 2 m/S 616 mmHg 60%
    15:00 +16°C° 0,2 mm 2 m/S 616 mmHg 61%
    16:00 +14°C° 0,2 mm 2 m/S 615 mmHg 67%
    17:00 +13°C° 0,2 mm 2 m/S 615 mmHg 73%
    18:00 +12°C° 0,2 mm 2 m/S 615 mmHg 80%
    19:00 +12°C° 0,1 mm 2 m/S 615 mmHg 81%
    20:00 +10°C° 0,1 mm 2 m/S 615 mmHg 83%
    21:00 +10°C° 0,1 mm 2 m/S 615 mmHg 85%
    22:00 +10°C° 0,1 mm 2 m/S 615 mmHg 85%
    23:00 +9°C° 0,1 mm 2 m/S 615 mmHg 86%
    Mehr zeigen